User: anonymous   Login
Location: Firdgum
(53.2488°N, 5.5615°E)
Time: 13:15:09
(UTC+00:00)
Language:

STARLINK-1057 - Orbit

View from above orbital plane
View from above orbital plane
View from above satellite
View from above satellite

Ground track
Ground track

The orbit data is extracted from the following two-line orbital elements,

1 44762U 19074BB  20053.25001157 -.00006643  00000-0 -43697-3 0  9998
2 44762  52.9983  36.1972 0002025  53.6361 162.8556 15.05595449 15952
Epoch (UTC): 22 February 2020 06:00:01
Eccentricity: 0.0002025
inclination: 52.9983°
perigee height: 548 km
apogee height: 551 km
right ascension of ascending node: 36.1972°
argument of perigee: 53.6361°
revolutions per day: 15.05595449
mean anomaly at epoch: 162.8556°
orbit number at epoch: 1595

The dashed part of the orbit path shows where the satellite is in the earth's shadow,  

DLR